This demonstration page uses our WeatherBlox Daily Observations layout. Learn more.

Left ArrowRight Arrow

53.62937, 11.41316

Hourly Observations for September 29, 2022

Temp ( °F °C ) Dew Point ( °F °C ) Humidity (%) Winds ( mph kmh ) Pressure ( in mb ) Visibility ( mi km ) Precip ( " mm )
12:20 am 00:20 Mostly Clear 43 6 43 6 100 100 VRB 1 2 29.50 999 6 10 0.00 0.00
12:50 am 00:50 Partly Cloudy 45 7 43 6 93 93 VRB 2 4 29.50 999 3 5 0.00 0.00
1:20 am 01:20 Mostly Cloudy 43 6 43 6 100 100 VRB 2 4 29.50 999 2 3 0.00 0.00
1:50 am 01:50 Mostly Cloudy 43 6 43 6 100 100 VRB 2 4 29.50 999 3 5 0.00 0.00
2:20 am 02:20 Partly Cloudy 43 6 41 5 93 93 VRB 1 2 29.50 999 3 4 0.00 0.00
2:50 am 02:50 Mostly Cloudy 43 6 43 6 100 100 VRB 2 4 29.50 999 1 1 0.00 0.00
3:20 am 03:20 Mostly Cloudy 43 6 43 6 100 100 VRB 2 4 29.50 999 3 5 0.00 0.00
3:50 am 03:50 Mostly Cloudy 41 5 41 5 100 100 VRB 1 2 29.50 999 3 5 0.00 0.00
4:20 am 04:20 Partly Cloudy 41 5 41 5 100 100 VRB 2 4 29.50 999 1 1 0.00 0.00
4:50 am 04:50 Mostly Clear 41 5 41 5 100 100 VRB 2 4 29.50 999 3 4 0.00 0.00
5:20 am 05:20 Mostly Clear 41 5 41 5 100 100 VRB 2 4 29.50 999 3 5 0.00 0.00
5:50 am 05:50 Partly Cloudy 41 5 41 5 100 100 VRB 2 4 29.50 999 2 4 0.00 0.00
6:20 am 06:20 Partly Cloudy 41 5 41 5 100 100 VRB 2 4 29.50 999 4 6 0.00 0.00
6:50 am 06:50 Mostly Clear 41 5 41 5 100 100 VRB 2 4 29.50 999 6 10 0.00 0.00
7:20 am 07:20 Sunny 41 5 41 5 100 100 VRB 2 4 29.50 999 5 8 0.00 0.00
7:50 am 07:50 Sunny 43 6 41 5 93 93 VRB 2 4 29.50 999 5 8 0.00 0.00
8:20 am 08:20 Mostly Sunny 43 6 41 5 93 93 VRB 2 4 29.53 1000 6 10 0.00 0.00
8:50 am 08:50 Mostly Sunny 43 6 43 6 100 100 VRB 3 6 29.53 1000 6 10 0.00 0.00
9:20 am 09:20 Mostly Sunny 45 7 43 6 93 93 VRB 2 4 29.53 1000 6 10 0.00 0.00
9:50 am 09:50 Mostly Sunny 46 8 45 7 93 93 VRB 3 6 29.53 1000 6 10 0.00 0.00
10:20 am 10:20 Mostly Sunny 46 8 45 7 93 93 VRB 3 6 29.53 1000 6 10 0.00 0.00
10:50 am 10:50 Mostly Sunny 48 9 46 8 93 93 VRB 3 6 29.53 1000 6 10 0.00 0.00
11:20 am 11:20 Mostly Sunny 50 10 46 8 87 87 VRB 3 6 29.56 1001 6 10 0.00 0.00
11:50 am 11:50 Mostly Sunny 50 10 46 8 87 87 VRB 3 6 29.56 1001 6 10 0.00 0.00
12:20 pm 12:20 Mostly Sunny 52 11 46 8 82 82 VRB 5 7 29.56 1001 6 10 0.00 0.00
12:50 pm 12:50 Sunny with Light Rain 52 11 46 8 82 82 VRB 3 6 29.56 1001 6 10 0.00 0.00
1:20 pm 13:20 Partly Cloudy with Light Rain 52 11 46 8 82 82 W 3 6 29.56 1001 6 10 0.00 0.00
1:50 pm 13:50 Partly Cloudy with Light Rain 52 11 48 9 87 87 W 5 7 29.56 1001 6 10 0.00 0.00
2:20 pm 14:20 Partly Cloudy with Light Rain 52 11 48 9 87 87 W 5 7 29.59 1002 6 10 0.00 0.00
2:50 pm 14:50 Sunny with Light Rain 52 11 48 9 87 87 W 6 9 29.59 1002 6 10 0.00 0.00
3:20 pm 15:20 Sunny with Light Rain 54 12 48 9 82 82 WSW 5 7 29.59 1002 6 10 0.00 0.00
3:50 pm 15:50 Partly Cloudy with Light Rain 52 11 48 9 87 87 WSW 5 7 29.59 1002 6 10 0.00 0.00
4:20 pm 16:20 Partly Cloudy with Light Rain 52 11 48 9 87 87 VRB 5 7 29.59 1002 6 10 0.00 0.00
4:50 pm 16:50 Partly Cloudy with Light Rain 50 10 48 9 93 93 VRB 3 6 29.59 1002 6 10 0.00 0.00
5:20 pm 17:20 Partly Cloudy with Light Rain 50 10 48 9 93 93 VRB 3 6 29.62 1003 6 10 0.00 0.00
5:50 pm 17:50 Mostly Cloudy with Rain 50 10 46 8 87 87 SSW 6 9 29.62 1003 6 10 0.00 0.00
6:20 pm 18:20 Mostly Cloudy with Light Rain 48 9 46 8 93 93 S 6 9 29.62 1003 6 10 0.00 0.00
6:50 pm 18:50 Partly Cloudy with Light Rain 48 9 46 8 93 93 S 5 7 29.62 1003 6 10 0.00 0.00
7:20 pm 19:20 Mostly Cloudy with Light Rain 48 9 46 8 93 93 S 6 9 29.62 1003 6 10 0.00 0.00
7:50 pm 19:50 Mostly Cloudy with Light Rain 48 9 46 8 93 93 S 6 9 29.62 1003 6 10 0.00 0.00
8:20 pm 20:20 Mostly Cloudy with Light Rain 48 9 46 8 93 93 S 5 7 29.65 1004 6 10 0.00 0.00
8:50 pm 20:50 Mostly Cloudy with Light Rain 48 9 46 8 93 93 S 3 6 29.65 1004 6 10 0.00 0.00
9:20 pm 21:20 Mostly Cloudy with Light Rain 48 9 48 9 100 100 VRB 2 4 29.65 1004 6 10 0.00 0.00
9:50 pm 21:50 Mostly Cloudy 48 9 48 9 100 100 S 3 6 29.65 1004 6 10 0.00 0.00
10:20 pm 22:20 Mostly Cloudy 50 10 48 9 93 93 S 5 7 29.68 1005 6 10 0.00 0.00
10:50 pm 22:50 Cloudy 50 10 48 9 93 93 S 5 7 29.68 1005 6 10 0.00 0.00
11:20 pm 23:20 Cloudy 50 10 48 9 93 93 VRB 2 4 29.68 1005 6 10 0.00 0.00
11:50 pm 23:50 Cloudy 50 10 48 9 93 93 VRB 2 4 29.68 1005 6 10 0.00 0.00

Powered by AerisWeather